owner,sensor,date,latitude,longitude,vertical_datum,direction_of_sea_water_velocity,sea_water_speed,upward_sea_water_velocity,qcFlag 
TABS,ioos:station:wmo:42046:1,2009-02-01T00:00:00Z,27.8903,-94.0367,2.0,309.3696461,10.59407853,-99999.0,'11111222,11111222,99999999' 
TABS,ioos:station:wmo:42046:1,2009-02-01T00:30:00Z,27.8903,-94.0367,2.0,312.8616381,8.526576101,-99999.0,'11133222,11111222,99999999' 
TABS,ioos:station:wmo:42046:1,2009-02-01T01:00:00Z,27.8903,-94.0367,2.0,317.4213,7.700194803,-99999.0,'11133222,11111222,99999999' 
TABS,ioos:station:wmo:42046:1,2009-02-01T01:30:00Z,27.8903,-94.0367,2.0,320.0280437,9.682189835,-99999.0,'11133222,11111222,99999999' 
TABS,ioos:station:wmo:42046:1,2009-02-01T02:00:00Z,27.8903,-94.0367,2.0,325.9026376,8.187582061,-99999.0,'11133222,11111222,99999999' 
TABS,ioos:station:wmo:42046:1,2009-02-01T02:30:00Z,27.8903,-94.0367,2.0,320.7175772,12.06669797,-99999.0,'11111222,11111222,99999999' 
TABS,ioos:station:wmo:42046:1,2009-02-01T03:00:00Z,27.8903,-94.0367,2.0,336.1259149,9.240676382,-99999.0,'11133222,11111222,99999999' 
TABS,ioos:station:wmo:42046:1,2009-02-01T03:30:00Z,27.8903,-94.0367,2.0,336.0883392,12.65629488,-99999.0,'11111222,11111222,99999999' 
TABS,ioos:station:wmo:42046:1,2009-02-01T04:00:00Z,27.8903,-94.0367,2.0,326.8589262,6.950712194,-99999.0,'11133222,11111222,99999999' 
TABS,ioos:station:wmo:42046:1,2009-02-01T04:30:00Z,27.8903,-94.0367,2.0,336.8615192,6.28564237,-99999.0,'11133222,11111222,99999999' 
TABS,ioos:station:wmo:42046:1,2009-02-01T05:00:00Z,27.8903,-94.0367,2.0,335.2696861,6.286572993,-99999.0,'11133222,11111222,99999999' 
TABS,ioos:station:wmo:42046:1,2009-02-01T05:30:00Z,27.8903,-94.0367,2.0,322.4550999,7.4665186,-99999.0,'11133222,11111222,99999999' 
TABS,ioos:station:wmo:42046:1,2009-02-01T06:00:00Z,27.8903,-94.0367,2.0,342.1855311,9.348240476,-99999.0,'11133222,11111222,99999999' 
TABS,ioos:station:wmo:42046:1,2009-02-01T06:30:00Z,27.8903,-94.0367,2.0,323.4360635,6.748096028,-99999.0,'11133222,11111222,99999999' 
TABS,ioos:station:wmo:42046:1,2009-02-01T07:00:00Z,27.8903,-94.0367,2.0,310.8573637,7.047056123,-99999.0,'11133222,11111222,99999999' 
TABS,ioos:station:wmo:42046:1,2009-02-01T07:30:00Z,27.8903,-94.0367,2.0,323.408531,10.30012136,-99999.0,'11111222,11111222,99999999' 
TABS,ioos:station:wmo:42046:1,2009-02-01T08:00:00Z,27.8903,-94.0367,2.0,315.5897563,6.873441642,-99999.0,'11133222,11111222,99999999' 
TABS,ioos:station:wmo:42046:1,2009-02-01T08:30:00Z,27.8903,-94.0367,2.0,309.4052366,11.16893012,-99999.0,'11111222,11111222,99999999' 
TABS,ioos:station:wmo:42046:1,2009-02-01T09:00:00Z,27.8903,-94.0367,2.0,312.7120859,13.63682148,-99999.0,'11111222,11111222,99999999' 
TABS,ioos:station:wmo:42046:1,2009-02-01T09:30:00Z,27.8903,-94.0367,2.0,316.643436,10.6038908,-99999.0,'11111222,11111222,99999999' 
TABS,ioos:station:wmo:42046:1,2009-02-01T10:00:00Z,27.8903,-94.0367,2.0,313.76213,9.816934348,-99999.0,'11133222,11111222,99999999' 
TABS,ioos:station:wmo:42046:1,2009-02-01T10:30:00Z,27.8903,-94.0367,2.0,312.7732739,12.73754293,-99999.0,'11111222,11111222,99999999' 
TABS,ioos:station:wmo:42046:1,2009-02-01T11:00:00Z,27.8903,-94.0367,2.0,305.8900297,14.38010431,-99999.0,'11111222,11111222,99999999' 
TABS,ioos:station:wmo:42046:1,2009-02-01T11:30:00Z,27.8903,-94.0367,2.0,306.7715319,11.61001723,-99999.0,'11111222,11111222,99999999' 
TABS,ioos:station:wmo:42046:1,2009-02-01T12:00:00Z,27.8903,-94.0367,2.0,316.0312315,13.75545346,-99999.0,'11111222,11111222,99999999' 
TABS,ioos:station:wmo:42046:1,2009-02-01T12:30:00Z,27.8903,-94.0367,2.0,314.8661341,9.058062707,-99999.0,'11133222,11111222,99999999' 
TABS,ioos:station:wmo:42046:1,2009-02-01T13:00:00Z,27.8903,-94.0367,2.0,303.2381885,16.1644672,-99999.0,'11111222,11111222,99999999' 
TABS,ioos:station:wmo:42046:1,2009-02-01T13:30:00Z,27.8903,-94.0367,2.0,308.5727694,14.33832975,-99999.0,'11111222,11111222,99999999' 
TABS,ioos:station:wmo:42046:1,2009-02-01T14:00:00Z,27.8903,-94.0367,2.0,312.7747802,14.93121562,-99999.0,'11111222,11111222,99999999' 
TABS,ioos:station:wmo:42046:1,2009-02-01T14:30:00Z,27.8903,-94.0367,2.0,300.6578452,16.04220683,-99999.0,'11111222,11111222,99999999' 
TABS,ioos:station:wmo:42046:1,2009-02-01T15:00:00Z,27.8903,-94.0367,2.0,307.9301876,15.56866404,-99999.0,'11111222,11111222,99999999' 
TABS,ioos:station:wmo:42046:1,2009-02-01T15:30:00Z,27.8903,-94.0367,2.0,313.366752,15.37875157,-99999.0,'11111222,11111222,99999999' 
TABS,ioos:station:wmo:42046:1,2009-02-01T16:00:00Z,27.8903,-94.0367,2.0,314.1661027,15.05589918,-99999.0,'11111222,11111222,99999999' 
TABS,ioos:station:wmo:42046:1,2009-02-01T16:30:00Z,27.8903,-94.0367,2.0,313.9477582,13.4726575,-99999.0,'11111222,11111222,99999999' 
TABS,ioos:station:wmo:42046:1,2009-02-01T17:00:00Z,27.8903,-94.0367,2.0,317.5338687,15.19643708,-99999.0,'11111222,11111222,99999999' 
TABS,ioos:station:wmo:42046:1,2009-02-01T17:30:00Z,27.8903,-94.0367,2.0,313.3330789,14.3391248,-99999.0,'11111222,11111222,99999999' 
TABS,ioos:station:wmo:42046:1,2009-02-01T18:00:00Z,27.8903,-94.0367,2.0,323.7509052,13.85081225,-99999.0,'11111222,11111222,99999999' 
TABS,ioos:station:wmo:42046:1,2009-02-01T18:30:00Z,27.8903,-94.0367,2.0,330.1353422,12.43078839,-99999.0,'11111222,11111222,99999999' 
TABS,ioos:station:wmo:42046:1,2009-02-01T19:00:00Z,27.8903,-94.0367,2.0,338.2737286,14.20941941,-99999.0,'11111222,11111222,99999999' 
TABS,ioos:station:wmo:42046:1,2009-02-01T19:30:00Z,27.8903,-94.0367,2.0,337.0213141,14.7287508,-99999.0,'11111222,11111222,99999999' 
TABS,ioos:station:wmo:42046:1,2009-02-01T20:00:00Z,27.8903,-94.0367,2.0,348.6163746,15.19901313,-99999.0,'11111222,11111222,99999999' 
TABS,ioos:station:wmo:42046:1,2009-02-01T20:30:00Z,27.8903,-94.0367,2.0,349.2532348,14.37208405,-99999.0,'11111222,11111222,99999999' 
TABS,ioos:station:wmo:42046:1,2009-02-01T21:00:00Z,27.8903,-94.0367,2.0,350.5379104,14.9027682,-99999.0,'11111222,11111222,99999999' 
TABS,ioos:station:wmo:42046:1,2009-02-01T21:30:00Z,27.8903,-94.0367,2.0,354.743951,15.93701666,-99999.0,'11111222,11111222,99999999' 
TABS,ioos:station:wmo:42046:1,2009-02-01T22:00:00Z,27.8903,-94.0367,2.0,349.2400943,15.53311302,-99999.0,'11111222,11111222,99999999' 
TABS,ioos:station:wmo:42046:1,2009-02-01T22:30:00Z,27.8903,-94.0367,2.0,350.7120404,14.06439832,-99999.0,'11111222,11111222,99999999' 
TABS,ioos:station:wmo:42046:1,2009-02-01T23:00:00Z,27.8903,-94.0367,2.0,352.6666743,13.63150762,-99999.0,'11111222,11111222,99999999' 
TABS,ioos:station:wmo:42046:1,2009-02-01T23:30:00Z,27.8903,-94.0367,2.0,347.3323652,13.40634178,-99999.0,'11111222,11111222,99999999' 
TABS,ioos:station:wmo:42046:1,2009-02-02T00:00:00Z,27.8903,-94.0367,2.0,342.0221981,9.914055679,-99999.0,'11133222,11111222,99999999' 
TABS,ioos:station:wmo:42046:1,2009-02-02T00:30:00Z,27.8903,-94.0367,2.0,343.0195011,12.08695578,-99999.0,'11111222,11111222,99999999' 
TABS,ioos:station:wmo:42046:1,2009-02-02T01:00:00Z,27.8903,-94.0367,2.0,335.2213074,10.47435917,-99999.0,'11111222,11111222,99999999' 
TABS,ioos:station:wmo:42046:1,2009-02-02T01:30:00Z,27.8903,-94.0367,2.0,331.2468401,8.31529314,-99999.0,'11133222,11111222,99999999' 
TABS,ioos:station:wmo:42046:1,2009-02-02T02:00:00Z,27.8903,-94.0367,2.0,305.1368546,7.471418875,-99999.0,'11133222,11111222,99999999' 
TABS,ioos:station:wmo:42046:1,2009-02-02T02:30:00Z,27.8903,-94.0367,2.0,305.5930018,7.267805721,-99999.0,'11133222,11111222,99999999' 
TABS,ioos:station:wmo:42046:1,2009-02-02T03:00:00Z,27.8903,-94.0367,2.0,302.6581674,8.005623024,-99999.0,'11133222,11111222,99999999' 
TABS,ioos:station:wmo:42046:1,2009-02-02T03:30:00Z,27.8903,-94.0367,2.0,303.9277188,10.71412619,-99999.0,'11111222,11111222,99999999' 
TABS,ioos:station:wmo:42046:1,2009-02-02T04:00:00Z,27.8903,-94.0367,2.0,295.2230724,7.063441088,-99999.0,'11133222,11111222,99999999' 
TABS,ioos:station:wmo:42046:1,2009-02-02T04:30:00Z,27.8903,-94.0367,2.0,311.2298372,4.946311757,-99999.0,'11133222,11111222,99999999' 
TABS,ioos:station:wmo:42046:1,2009-02-02T05:00:00Z,27.8903,-94.0367,2.0,310.991279,4.146721597,-99999.0,'11133222,11111222,99999999' 
TABS,ioos:station:wmo:42046:1,2009-02-02T05:30:00Z,27.8903,-94.0367,2.0,282.4306323,8.82691339,-99999.0,'11133222,11111222,99999999' 
TABS,ioos:station:wmo:42046:1,2009-02-02T06:00:00Z,27.8903,-94.0367,2.0,287.8162426,6.438773175,-99999.0,'11133222,11111222,99999999' 
TABS,ioos:station:wmo:42046:1,2009-02-02T06:30:00Z,27.8903,-94.0367,2.0,300.8134067,9.780598141,-99999.0,'11133222,11111222,99999999' 
TABS,ioos:station:wmo:42046:1,2009-02-02T07:00:00Z,27.8903,-94.0367,2.0,282.9127517,9.397638001,-99999.0,'11133222,11111222,99999999' 
TABS,ioos:station:wmo:42046:1,2009-02-02T07:30:00Z,27.8903,-94.0367,2.0,288.34736,12.35819566,-99999.0,'11111222,11111222,99999999' 
TABS,ioos:station:wmo:42046:1,2009-02-02T08:00:00Z,27.8903,-94.0367,2.0,301.4427156,12.72906909,-99999.0,'11111222,11111222,99999999' 
TABS,ioos:station:wmo:42046:1,2009-02-02T08:30:00Z,27.8903,-94.0367,2.0,317.0583086,13.78333051,-99999.0,'11111222,11111222,99999999' 
TABS,ioos:station:wmo:42046:1,2009-02-02T09:00:00Z,27.8903,-94.0367,2.0,320.5126647,11.99852074,-99999.0,'11111222,11111222,99999999' 
TABS,ioos:station:wmo:42046:1,2009-02-02T09:30:00Z,27.8903,-94.0367,2.0,318.4592196,11.83731811,-99999.0,'11111222,11111222,99999999' 
TABS,ioos:station:wmo:42046:1,2009-02-02T10:00:00Z,27.8903,-94.0367,2.0,331.4180456,12.9593364,-99999.0,'11111222,11111222,99999999' 
TABS,ioos:station:wmo:42046:1,2009-02-02T10:30:00Z,27.8903,-94.0367,2.0,325.9835549,13.6208847,-99999.0,'11111222,11111222,99999999' 
TABS,ioos:station:wmo:42046:1,2009-02-02T11:00:00Z,27.8903,-94.0367,2.0,328.266225,11.86362929,-99999.0,'11111222,11111222,99999999' 
TABS,ioos:station:wmo:42046:1,2009-02-02T11:30:00Z,27.8903,-94.0367,2.0,325.3051381,13.43968006,-99999.0,'11111222,11111222,99999999' 
TABS,ioos:station:wmo:42046:1,2009-02-02T12:00:00Z,27.8903,-94.0367,2.0,338.4278425,11.15109412,-99999.0,'11111222,11111222,99999999' 
TABS,ioos:station:wmo:42046:1,2009-02-02T12:30:00Z,27.8903,-94.0367,2.0,358.6030327,9.022682528,-99999.0,'11133222,11111222,99999999' 
TABS,ioos:station:wmo:42046:1,2009-02-02T13:00:00Z,27.8903,-94.0367,2.0,336.0642971,4.38731125,-99999.0,'11133222,11111222,99999999' 
TABS,ioos:station:wmo:42046:1,2009-02-02T13:30:00Z,27.8903,-94.0367,2.0,318.6627217,6.752518049,-99999.0,'11133222,11111222,99999999' 
TABS,ioos:station:wmo:42046:1,2009-02-02T14:00:00Z,27.8903,-94.0367,2.0,313.9691054,7.072213232,-99999.0,'11133222,11111222,99999999' 
TABS,ioos:station:wmo:42046:1,2009-02-02T14:30:00Z,27.8903,-94.0367,2.0,317.3841433,7.990150186,-99999.0,'11133222,11111222,99999999' 
TABS,ioos:station:wmo:42046:1,2009-02-02T15:00:00Z,27.8903,-94.0367,2.0,309.3016123,10.18316748,-99999.0,'11111222,11111222,99999999' 
TABS,ioos:station:wmo:42046:1,2009-02-02T15:30:00Z,27.8903,-94.0367,2.0,297.1165165,12.0887427,-99999.0,'11111222,11111222,99999999' 
TABS,ioos:station:wmo:42046:1,2009-02-02T16:00:00Z,27.8903,-94.0367,2.0,311.9875352,11.70465292,-99999.0,'11111222,11111222,99999999' 
TABS,ioos:station:wmo:42046:1,2009-02-02T16:30:00Z,27.8903,-94.0367,2.0,296.0260751,12.35258677,-99999.0,'11111222,11111222,99999999' 
TABS,ioos:station:wmo:42046:1,2009-02-02T17:00:00Z,27.8903,-94.0367,2.0,299.1295682,9.696354985,-99999.0,'11133222,11111222,99999999' 
TABS,ioos:station:wmo:42046:1,2009-02-02T17:30:00Z,27.8903,-94.0367,2.0,296.0757155,13.08147545,-99999.0,'11111222,11111222,99999999' 
TABS,ioos:station:wmo:42046:1,2009-02-02T18:00:00Z,27.8903,-94.0367,2.0,296.8511714,10.76009294,-99999.0,'11111222,11111222,99999999' 
TABS,ioos:station:wmo:42046:1,2009-02-02T18:30:00Z,27.8903,-94.0367,2.0,309.2778931,13.61601998,-99999.0,'11111222,11111222,99999999' 
TABS,ioos:station:wmo:42046:1,2009-02-02T19:00:00Z,27.8903,-94.0367,2.0,315.5363997,12.09205524,-99999.0,'11111222,11111222,99999999' 
TABS,ioos:station:wmo:42046:1,2009-02-02T19:30:00Z,27.8903,-94.0367,2.0,316.0778497,13.53641755,-99999.0,'11111222,11111222,99999999' 
TABS,ioos:station:wmo:42046:1,2009-02-02T20:00:00Z,27.8903,-94.0367,2.0,321.0533411,10.59496107,-99999.0,'11111222,11111222,99999999' 
TABS,ioos:station:wmo:42046:1,2009-02-02T20:30:00Z,27.8903,-94.0367,2.0,316.7627026,10.11641241,-99999.0,'11111222,11111222,99999999' 
TABS,ioos:station:wmo:42046:1,2009-02-02T21:00:00Z,27.8903,-94.0367,2.0,314.1591676,13.00509516,-99999.0,'11111222,11111222,99999999' 
TABS,ioos:station:wmo:42046:1,2009-02-02T21:30:00Z,27.8903,-94.0367,2.0,297.6200561,12.87746093,-99999.0,'11111222,11111222,99999999' 
TABS,ioos:station:wmo:42046:1,2009-02-02T22:00:00Z,27.8903,-94.0367,2.0,307.3258541,16.09650894,-99999.0,'11111222,11111222,99999999' 
TABS,ioos:station:wmo:42046:1,2009-02-02T22:30:00Z,27.8903,-94.0367,2.0,309.4963153,13.26993595,-99999.0,'11111222,11111222,99999999' 
TABS,ioos:station:wmo:42046:1,2009-02-02T23:00:00Z,27.8903,-94.0367,2.0,306.5435926,9.472153926,-99999.0,'11133222,11111222,99999999' 
TABS,ioos:station:wmo:42046:1,2009-02-02T23:30:00Z,27.8903,-94.0367,2.0,306.0922006,15.0233851,-99999.0,'11111222,11111222,99999999' 
TABS,ioos:station:wmo:42046:1,2009-02-03T00:00:00Z,27.8903,-94.0367,2.0,298.1329725,11.77059472,-99999.0,'11111222,11111222,99999999' 
TABS,ioos:station:wmo:42046:1,2009-02-03T00:30:00Z,27.8903,-94.0367,2.0,292.6088996,7.77769246,-99999.0,'11133222,11111222,99999999' 
TABS,ioos:station:wmo:42046:1,2009-02-03T01:00:00Z,27.8903,-94.0367,2.0,298.2295571,12.47357607,-99999.0,'11111222,11111222,99999999' 
TABS,ioos:station:wmo:42046:1,2009-02-03T01:30:00Z,27.8903,-94.0367,2.0,283.778079,8.061966261,-99999.0,'11133222,11111222,99999999' 
TABS,ioos:station:wmo:42046:1,2009-02-03T02:00:00Z,27.8903,-94.0367,2.0,262.1640723,5.501363467,-99999.0,'11133222,11111222,99999999' 
TABS,ioos:station:wmo:42046:1,2009-02-03T02:30:00Z,27.8903,-94.0367,2.0,288.6293292,11.20717627,-99999.0,'11111222,11111222,99999999' 
TABS,ioos:station:wmo:42046:1,2009-02-03T03:00:00Z,27.8903,-94.0367,2.0,278.578357,13.20774394,-99999.0,'11111222,11111222,99999999' 
TABS,ioos:station:wmo:42046:1,2009-02-03T03:30:00Z,27.8903,-94.0367,2.0,288.1049718,12.61453527,-99999.0,'11111222,11111222,99999999' 
TABS,ioos:station:wmo:42046:1,2009-02-03T04:00:00Z,27.8903,-94.0367,2.0,288.4222841,13.89188612,-99999.0,'11111222,11111222,99999999' 
TABS,ioos:station:wmo:42046:1,2009-02-03T04:30:00Z,27.8903,-94.0367,2.0,286.6459735,10.22863138,-99999.0,'11111222,11111222,99999999' 
TABS,ioos:station:wmo:42046:1,2009-02-03T05:00:00Z,27.8903,-94.0367,2.0,301.1362085,13.13170591,-99999.0,'11111222,11111222,99999999' 
TABS,ioos:station:wmo:42046:1,2009-02-03T05:30:00Z,27.8903,-94.0367,2.0,299.5062679,15.16709926,-99999.0,'11111222,11111222,99999999' 
TABS,ioos:station:wmo:42046:1,2009-02-03T06:00:00Z,27.8903,-94.0367,2.0,296.8582595,14.87451848,-99999.0,'11111222,11111222,99999999' 
TABS,ioos:station:wmo:42046:1,2009-02-03T06:30:00Z,27.8903,-94.0367,2.0,301.6858803,14.431036,-99999.0,'11111222,11111222,99999999' 
TABS,ioos:station:wmo:42046:1,2009-02-03T07:00:00Z,27.8903,-94.0367,2.0,292.1029694,16.95607561,-99999.0,'11111222,11111222,99999999' 
TABS,ioos:station:wmo:42046:1,2009-02-03T07:30:00Z,27.8903,-94.0367,2.0,302.1010036,15.29897055,-99999.0,'11111222,11111222,99999999' 
TABS,ioos:station:wmo:42046:1,2009-02-03T08:00:00Z,27.8903,-94.0367,2.0,293.5463213,14.94425977,-99999.0,'11111222,11111222,99999999' 
TABS,ioos:station:wmo:42046:1,2009-02-03T08:30:00Z,27.8903,-94.0367,2.0,296.088546,14.50811152,-99999.0,'11111222,11111222,99999999' 
TABS,ioos:station:wmo:42046:1,2009-02-03T09:00:00Z,27.8903,-94.0367,2.0,296.7689739,16.36364874,-99999.0,'11111222,11111222,99999999' 
TABS,ioos:station:wmo:42046:1,2009-02-03T09:30:00Z,27.8903,-94.0367,2.0,291.8598224,14.66436838,-99999.0,'11111222,11111222,99999999' 
TABS,ioos:station:wmo:42046:1,2009-02-03T10:00:00Z,27.8903,-94.0367,2.0,298.8072266,12.80458121,-99999.0,'11111222,11111222,99999999' 
TABS,ioos:station:wmo:42046:1,2009-02-03T10:30:00Z,27.8903,-94.0367,2.0,303.6653843,12.6998622,-99999.0,'11111222,11111222,99999999' 
TABS,ioos:station:wmo:42046:1,2009-02-03T11:00:00Z,27.8903,-94.0367,2.0,300.9355666,10.32936106,-99999.0,'11111222,11111222,99999999' 
TABS,ioos:station:wmo:42046:1,2009-02-03T11:30:00Z,27.8903,-94.0367,2.0,295.8497486,12.88970132,-99999.0,'11111222,11111222,99999999' 
TABS,ioos:station:wmo:42046:1,2009-02-03T12:00:00Z,27.8903,-94.0367,2.0,310.8253432,13.88907844,-99999.0,'11111222,11111222,99999999' 
TABS,ioos:station:wmo:42046:1,2009-02-03T12:30:00Z,27.8903,-94.0367,2.0,302.535412,12.38342441,-99999.0,'11111222,11111222,99999999' 
TABS,ioos:station:wmo:42046:1,2009-02-03T13:00:00Z,27.8903,-94.0367,2.0,308.8753878,18.29120007,-99999.0,'11111222,11111222,99999999' 
TABS,ioos:station:wmo:42046:1,2009-02-03T13:30:00Z,27.8903,-94.0367,2.0,308.6816482,16.6403155,-99999.0,'11111222,11111222,99999999' 
TABS,ioos:station:wmo:42046:1,2009-02-03T14:00:00Z,27.8903,-94.0367,2.0,311.4176086,15.84186858,-99999.0,'11111222,11111222,99999999' 
TABS,ioos:station:wmo:42046:1,2009-02-03T14:30:00Z,27.8903,-94.0367,2.0,315.2250033,16.22822541,-99999.0,'11111222,11111222,99999999' 
TABS,ioos:station:wmo:42046:1,2009-02-03T15:00:00Z,27.8903,-94.0367,2.0,313.1686678,16.3708155,-99999.0,'11111222,11111222,99999999' 
TABS,ioos:station:wmo:42046:1,2009-02-03T15:30:00Z,27.8903,-94.0367,2.0,307.7239724,12.61740068,-99999.0,'11111222,11111222,99999999' 
TABS,ioos:station:wmo:42046:1,2009-02-03T16:00:00Z,27.8903,-94.0367,2.0,300.3443995,15.06360183,-99999.0,'11111222,11111222,99999999' 
TABS,ioos:station:wmo:42046:1,2009-02-03T16:30:00Z,27.8903,-94.0367,2.0,304.2355468,14.57540737,-99999.0,'11111222,11111222,99999999' 
TABS,ioos:station:wmo:42046:1,2009-02-03T17:00:00Z,27.8903,-94.0367,2.0,297.5595149,13.91938217,-99999.0,'11111222,11111222,99999999' 
TABS,ioos:station:wmo:42046:1,2009-02-03T17:30:00Z,27.8903,-94.0367,2.0,311.6277728,15.62583758,-99999.0,'11111222,11111222,99999999' 
TABS,ioos:station:wmo:42046:1,2009-02-03T18:00:00Z,27.8903,-94.0367,2.0,317.9177838,16.53237128,-99999.0,'11111222,11111222,99999999' 
TABS,ioos:station:wmo:42046:1,2009-02-03T18:30:00Z,27.8903,-94.0367,2.0,331.0637419,16.96840004,-99999.0,'11111222,11111222,99999999' 
TABS,ioos:station:wmo:42046:1,2009-02-03T19:00:00Z,27.8903,-94.0367,2.0,338.7885515,16.05792639,-99999.0,'11111222,11111222,99999999' 
TABS,ioos:station:wmo:42046:1,2009-02-03T19:30:00Z,27.8903,-94.0367,2.0,337.4591853,15.10386043,-99999.0,'11111222,11111222,99999999' 
TABS,ioos:station:wmo:42046:1,2009-02-03T20:00:00Z,27.8903,-94.0367,2.0,330.7334263,14.42078015,-99999.0,'11111222,11111222,99999999' 
TABS,ioos:station:wmo:42046:1,2009-02-03T20:30:00Z,27.8903,-94.0367,2.0,337.2829392,12.66232601,-99999.0,'11111222,11111222,99999999' 
TABS,ioos:station:wmo:42046:1,2009-02-03T21:00:00Z,27.8903,-94.0367,2.0,332.2231115,12.89605366,-99999.0,'11111222,11111222,99999999' 
TABS,ioos:station:wmo:42046:1,2009-02-03T21:30:00Z,27.8903,-94.0367,2.0,318.2599899,10.69461547,-99999.0,'11111222,11111222,99999999' 
TABS,ioos:station:wmo:42046:1,2009-02-03T22:00:00Z,27.8903,-94.0367,2.0,333.935033,9.740682728,-99999.0,'11133222,11111222,99999999' 
TABS,ioos:station:wmo:42046:1,2009-02-03T22:30:00Z,27.8903,-94.0367,2.0,322.3215326,6.65866353,-99999.0,'11133222,11111222,99999999' 
TABS,ioos:station:wmo:42046:1,2009-02-03T23:00:00Z,27.8903,-94.0367,2.0,316.571411,9.542457755,-99999.0,'11133222,11111222,99999999' 
TABS,ioos:station:wmo:42046:1,2009-02-03T23:30:00Z,27.8903,-94.0367,2.0,308.9311182,10.56683491,-99999.0,'11111222,11111222,99999999' 
TABS,ioos:station:wmo:42046:1,2009-02-04T00:00:00Z,27.8903,-94.0367,2.0,304.7144257,11.48412818,-99999.0,'11111222,11111222,99999999' 
TABS,ioos:station:wmo:42046:1,2009-02-04T00:30:00Z,27.8903,-94.0367,2.0,316.6174452,9.521449469,-99999.0,'11133222,11111222,99999999' 
TABS,ioos:station:wmo:42046:1,2009-02-04T01:00:00Z,27.8903,-94.0367,2.0,317.4300736,10.0074872,-99999.0,'11111222,11111222,99999999' 
TABS,ioos:station:wmo:42046:1,2009-02-04T01:30:00Z,27.8903,-94.0367,2.0,314.482286,11.73138099,-99999.0,'11111222,11111222,99999999' 
TABS,ioos:station:wmo:42046:1,2009-02-04T02:00:00Z,27.8903,-94.0367,2.0,315.5604508,10.12625301,-99999.0,'11111222,11111222,99999999' 
TABS,ioos:station:wmo:42046:1,2009-02-04T02:30:00Z,27.8903,-94.0367,2.0,306.0277101,11.96929405,-99999.0,'11111222,11111222,99999999' 
TABS,ioos:station:wmo:42046:1,2009-02-04T03:00:00Z,27.8903,-94.0367,2.0,304.8684358,9.848009951,-99999.0,'11133222,11111222,99999999' 
TABS,ioos:station:wmo:42046:1,2009-02-04T03:30:00Z,27.8903,-94.0367,2.0,304.2601138,10.32070734,-99999.0,'11111222,11111222,99999999' 
TABS,ioos:station:wmo:42046:1,2009-02-04T04:00:00Z,27.8903,-94.0367,2.0,291.372664,13.88482985,-99999.0,'11111222,11111222,99999999' 
TABS,ioos:station:wmo:42046:1,2009-02-04T04:30:00Z,27.8903,-94.0367,2.0,293.9538046,12.85732865,-99999.0,'11111222,11111222,99999999' 
TABS,ioos:station:wmo:42046:1,2009-02-04T05:00:00Z,27.8903,-94.0367,2.0,294.9914877,16.11918732,-99999.0,'11111222,11111222,99999999' 
TABS,ioos:station:wmo:42046:1,2009-02-04T05:30:00Z,27.8903,-94.0367,2.0,293.3694794,12.35336391,-99999.0,'11111222,11111222,99999999' 
TABS,ioos:station:wmo:42046:1,2009-02-04T06:00:00Z,27.8903,-94.0367,2.0,292.0537059,14.78149181,-99999.0,'11111222,11111222,99999999' 
TABS,ioos:station:wmo:42046:1,2009-02-04T06:30:00Z,27.8903,-94.0367,2.0,294.9712897,14.30742814,-99999.0,'11111222,11111222,99999999' 
TABS,ioos:station:wmo:42046:1,2009-02-04T07:00:00Z,27.8903,-94.0367,2.0,310.169907,14.10738814,-99999.0,'11111222,11111222,99999999' 
TABS,ioos:station:wmo:42046:1,2009-02-04T07:30:00Z,27.8903,-94.0367,2.0,299.0989629,15.17537479,-99999.0,'11111222,11111222,99999999' 
TABS,ioos:station:wmo:42046:1,2009-02-04T08:00:00Z,27.8903,-94.0367,2.0,300.4345855,16.70124546,-99999.0,'11111222,11111222,99999999' 
TABS,ioos:station:wmo:42046:1,2009-02-04T08:30:00Z,27.8903,-94.0367,2.0,302.268334,16.6516816,-99999.0,'11111222,11111222,99999999' 
TABS,ioos:station:wmo:42046:1,2009-02-04T09:00:00Z,27.8903,-94.0367,2.0,298.3630983,14.39842005,-99999.0,'11111222,11111222,99999999' 
TABS,ioos:station:wmo:42046:1,2009-02-04T09:30:00Z,27.8903,-94.0367,2.0,302.9076671,13.60251815,-99999.0,'11111222,11111222,99999999' 
TABS,ioos:station:wmo:42046:1,2009-02-04T10:00:00Z,27.8903,-94.0367,2.0,299.460182,16.20533863,-99999.0,'11111222,11111222,99999999' 
TABS,ioos:station:wmo:42046:1,2009-02-04T10:30:00Z,27.8903,-94.0367,2.0,301.6771363,15.71048694,-99999.0,'11111222,11111222,99999999' 
TABS,ioos:station:wmo:42046:1,2009-02-04T11:00:00Z,27.8903,-94.0367,2.0,317.1274618,14.85948182,-99999.0,'11111222,11111222,99999999' 
TABS,ioos:station:wmo:42046:1,2009-02-04T11:30:00Z,27.8903,-94.0367,2.0,311.1236369,11.19082213,-99999.0,'11111222,11111222,99999999' 
TABS,ioos:station:wmo:42046:1,2009-02-04T12:00:00Z,27.8903,-94.0367,2.0,296.9316576,11.19398499,-99999.0,'11111222,11111222,99999999' 
TABS,ioos:station:wmo:42046:1,2009-02-04T12:30:00Z,27.8903,-94.0367,2.0,280.4872419,9.01050498,-99999.0,'11133222,11111222,99999999' 
TABS,ioos:station:wmo:42046:1,2009-02-04T13:00:00Z,27.8903,-94.0367,2.0,310.3454054,17.94900554,-99999.0,'11111222,11111222,99999999' 
TABS,ioos:station:wmo:42046:1,2009-02-04T13:30:00Z,27.8903,-94.0367,2.0,304.4638725,17.05303785,-99999.0,'11111222,11111222,99999999' 
TABS,ioos:station:wmo:42046:1,2009-02-04T14:00:00Z,27.8903,-94.0367,2.0,300.7337089,18.7655269,-99999.0,'11111222,11111222,99999999' 
TABS,ioos:station:wmo:42046:1,2009-02-04T14:30:00Z,27.8903,-94.0367,2.0,298.5781666,19.60899793,-99999.0,'11111222,11111222,99999999' 
TABS,ioos:station:wmo:42046:1,2009-02-04T15:00:00Z,27.8903,-94.0367,2.0,298.6672915,20.2410894,-99999.0,'11111222,11111222,99999999' 
TABS,ioos:station:wmo:42046:1,2009-02-04T15:30:00Z,27.8903,-94.0367,2.0,304.7835974,16.86318179,-99999.0,'11111222,11111222,99999999' 
TABS,ioos:station:wmo:42046:1,2009-02-04T16:00:00Z,27.8903,-94.0367,2.0,301.9514176,19.01001052,-99999.0,'11111222,11111222,99999999' 